Location: Newark
(7.0858°N, 171.3717°E)
Time: 03:04:47
(UTC+00:00)

Transit 4A - Pass Details

Date: 03 December 2020
Orbit: 864 x 980 km, 66.8° (Epoch: 20 January)

Event Time Altitude Azimuth Distance (km) Brightness Sun altitude
Rises 16:48:37 0° 163° (SSE) 3,541 11.5 -24.8°
Reaches altitude 10° 16:52:18 10° 141° (SE) 2,624 11.1 -24.0°
Maximum altitude 16:55:37 15° 107° (ESE) 2,297 10.9 -23.2°
Drops below altitude 10° 16:58:59 10° 74° (ENE) 2,666 11.0 -22.4°
Sets 17:02:45 0° 52° (NE) 3,632 11.4 -21.6°
